Starlink 30841

operational
NORAD ID: 58208 Int'l Des: 2023-170 Owner: SPXS Country: US Constellation: starlink
LEOCIRCULAR

Starlink 30841について

説明を読み込み中...

リアルタイム位置

3D地球を読み込み中...

次回通過

高度履歴

Altitude vs Time

uPlot chart will show altitude changes over time

軌道要素

1 58208U 23170C 25258.17863339 .00000959 00000-0 86080-4 0 9997
2 58208 43.0042 69.9608 0001262 268.1573 91.9125 15.02536851103871
Epoch: Sep 15, 2025 • Age: 8 hours

現在のステータス

高度 562.0 km
速度 7.59 km/s
衛星直下点 38.15°N, 58°W
打ち上げ日 Nov 4, 2023
運用期間 1.8 years
タイプ internet

技術仕様

分類 Payload
質量 730.00 kg
乾燥質量 700.00 kg
総質量 730.00 kg
長さ 0.30 m
直径 4.10 m
スパン 29.00 m
形状 Box + pan
製造者 SPXS
バスタイプ Starlink V2M
フェーズステータス In Orbit
所有者/国 SPXS/US

大規模コンステレーション

Loading constellations...